Simultaneous Nadir Overpasses (SNOs) Predictions

Prediction of SNOs between GOES-15 and METOP-B Satellite Orbit:

Table of predicted SNOs for the next 14.0 days since TLE Epoch: 3/28/2025
Index Date Time (GOES-15) GOES-15 Lat,Lon METOP-B Lat,Lon Distance(km) Time Diff (sec)
1 03/29/2025 05:06:07 -0.08, 61.30 0.08, 60.72 66.19 80
2 03/31/2025 17:07:12 0.09, 61.26 0.05, 61.06 22.05 80
3 04/03/2025 05:05:28 -0.10, 61.32 -0.12, 61.46 14.76 80
4 04/05/2025 17:01:13 0.11, 61.30 0.23, 61.80 57.59 80
5 04/07/2025 05:20:06 -0.12, 61.36 0.81, 57.22 472.77 80
6 04/08/2025 05:02:08 -0.12, 61.37 -0.28, 62.20 93.97 80
7 04/09/2025 17:21:11 0.13, 61.33 -0.68, 57.56 428.76 80
8 04/10/2025 16:57:52 0.12, 61.34 0.36, 62.56 137.77 80
